Location: Little Maitland River
(43.8022°N, 81.1549°W)
Time: 14:38:33
(UTC+00:00)

CZ-4 R/B - Visible Passes

Search period start: 16 March 2026 00:00
Search period end: 26 March 2026 00:00
Orbit: 676 x 743 km, 98.7° (Epoch: 16 March)

Date Brightness Start Highest point End Pass type
(mag) Time Alt. Az. Time Alt. Az. Time Alt. Az.
16 Mar 6.0 10:06:45 10° NE 10:10:49 27° E 10:14:48 10° SSE visible
17 Mar 4.1 10:51:02 10° NNE 10:55:50 75° ESE 11:00:31 10° S visible
18 Mar 6.4 09:58:50 10° NE 10:02:34 22° E 10:06:14 10° SE visible
19 Mar 4.4 10:42:55 10° NNE 10:47:39 61° ESE 10:52:16 10° S visible
20 Mar 6.6 09:50:59 10° NE 09:54:18 19° E 09:57:33 10° SE visible
21 Mar 4.9 10:34:49 10° NNE 10:39:26 50° E 10:43:57 10° S visible
22 Mar 6.8 09:43:16 10° NE 09:46:01 15° E 09:48:43 10° SE visible
23 Mar 5.3 10:26:44 10° NNE 10:31:13 41° E 10:35:35 10° S visible
24 Mar 6.9 09:35:47 10° ENE 09:37:43 12° E 09:39:38 10° ESE visible
25 Mar 5.7 10:18:42 10° NNE 10:22:58 33° E 10:27:09 10° SSE visible
